Theta_e
346 346 347 347 347 346 345 345 344 345 347 346 348 348 346 345 345 347 347 344 344 348 349 346 346 347 347 345 343 343 343 342 342 342 342 342 341 341 341 343 344 343 342 342 343 343 343 342 341 342 342 340 340 342 343 344 346 346 346 347 347 347 348 348 348 348 348 347 347 347 347 345 345 344 344 343 343 343 343 343 342 342 343 344 343
345 346 347 347 347 346 345 346 345 345 347 346 348 349 348 347 346 348 347 342 342 347 348 346 346 347 347 346 345 345 345 344 342 341 342 341 341 341 341 342 343 343 343 344 344 344 343 342 341 341 343 343 343 344 344 345 346 346 347 347 348 348 348 348 348 348 348 348 347 346 344 343 343 343 342 343 343 343 343 343 342 342 342 343 343
345 345 347 347 347 346 346 346 345 344 345 346 347 348 349 348 347 348 345 341 341 345 347 347 347 348 348 347 347 346 345 345 344 342 341 341 341 341 341 341 341 342 344 345 344 344 343 342 341 341 343 344 344 344 344 345 346 346 347 347 348 348 349 348 348 348 348 347 346 345 344 343 343 342 342 341 342 341 342 343 343 342 342 342 341
344 345 346 347 347 346 346 346 345 344 345 345 345 347 348 348 348 347 344 340 340 342 346 348 348 348 349 349 348 348 347 347 345 343 341 341 341 341 341 341 341 342 344 346 344 343 342 342 341 342 343 344 344 344 343 345 346 346 347 348 348 349 349 349 348 348 347 346 346 346 344 343 344 343 342 341 341 340 341 341 342 342 341 341 340
344 345 346 346 346 346 346 346 345 345 345 343 342 344 346 347 348 347 343 340 339 340 344 348 348 349 350 350 350 350 349 348 346 342 341 341 341 341 342 342 342 342 343 345 343 342 342 342 341 341 343 344 344 344 344 344 346 347 348 349 350 349 349 348 349 348 347 346 347 347 346 345 345 344 342 340 340 340 340 339 340 342 341 339 338
343 344 345 346 346 346 346 346 345 344 344 343 340 340 343 346 347 348 344 340 339 339 343 347 347 348 350 350 350 350 349 347 344 340 339 341 341 341 342 343 343 343 343 343 343 342 342 342 341 340 342 344 345 345 344 344 345 347 349 350 349 349 348 348 348 347 346 346 347 347 346 346 345 344 343 341 340 339 340 339 339 340 341 339 338
343 344 344 345 345 346 346 346 345 344 343 343 342 340 342 344 346 347 344 341 340 340 340 343 344 346 349 350 349 349 348 346 343 341 340 341 342 341 342 344 343 343 343 343 343 342 341 341 340 340 342 345 345 344 344 344 345 348 349 349 348 348 348 348 348 346 346 346 347 346 345 344 344 344 344 343 341 339 338 338 339 339 340 340 340
342 343 344 344 345 345 346 345 344 343 343 343 343 342 341 343 345 346 344 341 340 341 341 342 343 344 347 349 349 348 347 347 345 345 344 342 342 341 341 343 344 344 344 343 343 342 341 341 341 341 343 345 345 344 344 344 347 350 349 348 348 348 347 348 347 346 346 346 347 346 343 343 343 343 344 345 343 341 339 339 339 339 339 340 341
341 342 342 343 344 344 344 344 343 343 343 343 343 342 342 341 342 345 346 342 339 340 341 343 346 346 347 348 349 348 348 348 347 347 346 343 341 341 341 343 344 345 344 344 343 343 342 342 342 342 343 345 344 344 344 344 347 349 349 348 348 347 347 348 347 346 346 346 347 345 342 341 343 343 344 345 344 343 344 343 342 340 339 340 340
340 342 342 342 343 343 343 343 344 343 343 343 343 343 342 342 341 343 346 344 338 337 337 340 345 348 349 349 349 349 349 349 348 347 347 344 341 340 341 342 344 345 345 345 344 344 342 342 342 342 343 344 344 344 344 345 346 348 348 347 347 347 347 348 348 346 346 346 346 344 342 342 344 343 344 344 343 343 343 344 344 342 340 339 339
337 340 342 342 342 342 343 343 343 344 344 344 344 343 343 342 341 341 344 344 339 337 336 336 342 347 349 350 350 349 349 349 348 347 347 345 341 339 341 342 344 345 345 344 344 344 343 342 342 343 343 344 344 343 344 344 345 346 347 347 346 347 347 348 348 346 346 346 346 344 342 344 345 344 344 343 342 342 341 342 345 344 340 340 339
336 339 342 343 343 343 344 344 344 344 344 344 344 343 343 342 341 340 342 344 341 336 335 336 340 345 347 349 349 349 349 349 347 346 346 345 341 339 341 342 344 345 345 344 344 344 343 342 342 342 342 343 343 343 343 344 345 346 347 347 348 347 346 347 347 346 346 346 345 345 343 344 345 345 345 344 342 342 341 342 344 344 341 340 340
339 338 342 342 343 344 344 344 344 344 344 344 343 343 343 343 342 340 340 342 341 337 335 336 338 342 345 348 349 349 349 349 346 345 346 346 344 341 340 341 343 344 345 344 344 344 344 344 343 343 342 343 343 343 344 345 345 346 348 347 347 346 345 345 345 345 346 346 345 345 344 344 345 346 346 345 343 342 342 342 343 343 342 342 341
343 338 341 343 342 343 343 343 343 344 344 343 343 343 343 343 342 340 338 340 340 337 335 336 338 341 343 346 348 348 349 349 346 346 347 347 346 344 341 340 342 344 343 343 344 344 344 344 344 344 343 343 343 344 345 345 346 347 347 345 343 342 342 343 343 343 345 347 346 345 344 344 346 347 348 348 345 343 343 344 344 344 343 343 343
348 340 339 342 343 343 343 343 342 343 343 343 343 343 343 343 342 339 337 338 339 338 336 335 336 340 342 344 347 348 348 348 347 347 348 347 346 347 344 340 340 343 343 343 344 345 344 344 344 344 345 344 344 344 346 347 348 348 347 343 341 340 340 340 340 341 343 346 346 344 344 345 346 348 349 349 348 346 345 346 346 346 345 344 344
349 343 339 340 343 344 344 344 343 343 343 342 343 343 343 343 343 338 335 336 337 337 337 336 336 338 339 341 345 348 349 348 346 347 348 347 346 346 345 341 339 341 342 342 343 344 345 345 345 346 347 346 345 345 347 348 348 348 346 343 341 340 340 339 339 339 340 342 344 344 343 345 347 348 348 349 349 348 347 347 347 347 347 345 344
350 347 341 339 341 344 344 344 344 343 343 343 342 343 342 343 344 339 335 335 336 336 336 336 335 337 337 338 342 346 348 347 345 346 347 347 347 346 346 343 341 340 341 341 342 342 343 344 345 346 347 347 346 346 347 347 347 347 346 345 344 342 341 339 340 339 339 339 341 343 344 345 347 347 347 348 348 348 348 348 348 347 346 346 345
352 350 346 341 340 342 344 343 344 343 343 343 342 342 343 343 344 342 337 335 333 333 334 334 334 334 335 336 339 343 345 345 344 345 346 347 347 346 346 345 343 342 341 342 342 341 341 342 342 344 345 345 345 345 345 345 345 345 346 346 346 344 342 341 341 340 339 338 339 341 343 345 346 346 346 347 347 348 348 347 347 347 346 346 346
352 352 350 347 342 340 343 344 344 344 343 343 343 342 343 344 344 344 341 338 335 333 332 333 333 334 334 335 336 339 341 342 342 343 344 346 346 346 345 343 343 343 342 343 343 342 341 341 341 342 342 343 344 345 344 343 343 343 344 343 344 344 343 343 344 342 341 340 338 338 341 342 343 344 346 347 347 347 347 347 347 347 347 347 346
352 352 352 351 346 341 342 344 344 344 343 344 344 344 344 344 345 345 345 343 343 340 336 333 333 333 333 333 334 335 337 338 339 340 341 342 343 344 344 343 342 342 342 342 343 342 342 342 342 343 342 341 342 344 343 342 341 342 342 342 341 342 342 343 343 343 342 342 340 340 340 342 343 344 345 346 347 346 346 346 347 347 347 347 346
352 352 352 352 350 346 344 345 344 344 345 345 345 345 344 345 345 345 345 345 345 345 342 337 333 332 333 333 332 333 334 335 336 337 337 337 338 341 342 343 342 342 342 342 341 341 341 342 343 343 341 340 340 342 343 341 340 340 341 341 341 341 341 341 342 343 343 343 342 341 341 342 343 344 345 345 345 345 344 344 346 347 347 347 348
352 352 352 352 351 350 349 348 346 345 346 346 346 346 346 346 346 347 346 346 345 346 346 342 335 332 332 333 332 332 333 334 335 335 335 335 335 337 339 341 342 342 342 342 341 340 340 341 341 341 341 340 339 341 341 341 340 340 340 340 341 341 341 341 341 341 342 342 342 342 341 341 342 343 344 344 344 343 342 342 344 346 346 347 349
352 352 352 352 351 351 351 351 349 348 347 348 348 347 346 346 346 346 346 346 346 346 347 346 342 337 333 332 333 333 332 333 333 334 334 334 334 334 336 338 339 341 343 343 342 342 342 343 342 341 341 340 339 339 339 338 338 338 338 338 340 340 340 341 341 340 341 341 341 341 341 341 342 342 343 344 343 342 341 339 341 343 345 346 348
352 352 352 352 352 351 352 351 351 350 348 348 349 349 349 348 346 346 346 347 347 347 347 348 347 344 338 333 333 333 334 333 332 332 333 332 333 333 333 335 336 338 341 343 344 343 343 344 343 342 341 340 338 337 337 337 336 336 336 336 337 338 338 339 339 339 341 341 341 341 340 340 340 340 340 341 341 342 341 340 339 341 343 345 347
352 353 352 352 352 352 351 351 351 351 349 349 350 351 352 352 350 348 348 347 347 347 348 348 349 349 346 340 335 333 334 334 333 332 331 331 331 332 332 333 333 335 338 341 344 346 345 345 344 343 342 341 340 339 337 336 336 335 334 334 334 335 335 336 336 337 338 339 339 339 339 340 340 340 339 339 339 339 339 340 339 340 341 343 345
350 352 352 352 352 351 351 351 351 351 350 349 351 352 352 352 352 353 351 349 348 348 349 349 349 349 350 349 344 336 332 332 333 333 333 332 332 332 332 333 333 333 337 341 344 346 346 346 345 344 344 343 342 341 339 337 336 335 334 333 332 333 334 334 334 335 335 335 335 335 336 336 337 338 337 337 336 335 334 335 336 337 338 340 341
347 349 349 349 348 349 350 351 351 351 351 350 351 352 352 352 352 354 354 352 351 352 351 351 350 350 351 352 350 344 338 334 334 334 334 335 335 336 335 334 334 335 337 341 344 345 346 345 346 346 346 346 345 343 342 340 338 336 333 332 331 331 332 333 333 333 333 333 332 332 331 331 331 331 331 331 331 330 329 329 331 334 338 340 341
345 346 346 346 347 347 348 349 350 350 351 351 351 351 352 352 352 353 353 352 352 354 355 353 351 351 352 353 352 351 348 345 342 341 340 337 337 340 340 337 337 339 340 342 343 344 345 345 345 345 344 345 346 345 344 343 341 339 337 334 331 331 330 330 330 330 331 331 331 329 328 328 327 327 327 327 327 327 327 328 331 338 342 344 344
344 344 345 346 346 347 347 348 350 350 351 351 351 351 351 352 353 352 352 352 352 353 355 354 353 353 355 355 354 353 353 352 351 350 349 345 340 342 346 345 342 341 342 344 344 344 345 346 345 345 344 344 344 344 343 344 343 343 341 339 336 334 332 331 330 328 328 328 327 327 326 326 326 326 325 326 326 327 328 328 330 336 341 343 345
343 343 344 345 346 346 347 348 349 350 350 351 351 351 351 351 351 351 352 352 352 352 352 352 353 353 355 355 355 355 356 356 354 353 353 352 347 345 349 352 350 346 344 345 345 345 346 347 347 347 347 347 346 344 343 343 344 344 344 343 342 340 339 338 336 334 332 330 328 326 325 325 325 325 325 325 325 326 327 327 327 329 332 337 341
339 341 342 344 345 346 346 347 348 349 349 349 349 350 350 351 351 351 351 352 351 351 351 351 352 352 353 353 353 355 355 355 354 353 353 353 352 349 350 353 353 351 349 347 347 347 347 347 346 346 347 348 347 347 344 343 344 344 344 344 344 343 342 342 341 341 339 338 336 334 332 329 327 326 325 325 325 325 327 327 327 327 328 330 334
336 337 338 340 342 344 345 345 345 346 347 347 348 348 348 349 349 349 349 351 352 352 352 352 353 353 353 352 352 352 353 352 352 352 352 352 352 350 350 351 351 351 351 350 349 349 349 348 347 347 347 347 347 347 347 346 344 344 344 345 345 344 344 344 343 343 342 342 341 341 340 338 336 333 330 329 328 327 327 327 328 328 329 329 330
334 335 334 335 337 340 342 343 343 343 343 343 344 345 345 345 345 345 346 347 349 350 351 352 352 353 353 353 353 352 352 352 352 352 351 351 351 350 349 351 351 350 351 351 350 350 349 348 347 347 347 346 346 346 347 348 347 345 345 345 345 345 345 345 345 345 344 344 344 343 343 343 343 342 340 339 337 335 334 334 333 333 332 332 331
333 334 334 334 334 335 338 339 340 341 339 337 336 336 337 338 340 342 343 344 345 346 347 348 350 351 352 352 353 352 352 352 352 351 351 351 351 351 351 352 352 351 351 351 351 351 350 349 348 348 348 347 346 345 345 347 348 348 347 345 344 344 344 344 344 345 345 345 345 345 345 345 345 345 345 345 344 343 342 342 342 341 340 339 338
331 332 334 334 333 333 333 334 334 334 332 330 328 326 326 327 330 333 337 340 343 343 343 344 344 346 348 350 350 351 351 351 351 351 351 351 351 351 352 352 352 352 352 351 351 351 351 350 349 349 349 349 347 346 346 347 348 348 348 347 346 344 344 343 343 344 344 345 345 346 346 346 346 346 346 346 346 346 346 346 346 345 345 345 345
329 330 331 332 332 332 332 332 331 330 328 326 325 323 321 320 322 324 328 333 338 340 340 341 341 343 344 345 345 345 346 346 346 345 346 348 350 350 350 350 351 352 352 352 352 353 351 351 350 349 350 350 350 348 347 347 347 347 347 347 346 345 345 344 343 343 343 344 345 346 346 346 346 346 345 346 347 347 347 347 347 347 347 347 347
327 327 328 329 328 329 330 330 330 329 328 327 326 324 322 320 319 319 320 324 330 334 337 339 340 340 340 340 339 339 339 339 339 340 341 343 345 347 347 347 348 350 351 351 352 353 353 353 353 352 352 352 352 351 350 348 348 347 347 346 346 346 346 345 345 344 344 344 344 345 346 346 346 346 345 346 346 347 348 348 348 347 347 347 348
327 326 325 325 324 325 327 329 329 328 328 327 326 324 323 321 321 319 319 319 320 322 325 328 330 333 336 337 335 333 334 336 337 338 339 340 341 343 343 343 344 345 347 349 350 351 352 353 353 353 353 353 353 353 353 352 351 350 349 348 347 347 347 347 347 348 347 346 345 346 347 347 348 348 349 349 349 350 350 350 350 349 349 348 348
325 324 323 323 322 322 324 326 327 327 328 327 326 323 321 320 320 319 319 319 318 317 318 318 319 323 329 331 329 328 331 336 337 337 338 337 338 340 340 340 340 341 343 346 348 349 350 350 351 352 353 353 353 353 353 353 353 352 352 351 350 349 348 348 349 350 350 349 349 349 350 350 351 351 352 352 352 352 353 353 354 353 352 351 350
322 321 320 320 319 320 322 323 323 324 325 326 325 323 321 319 318 317 317 317 316 316 316 317 317 318 320 321 321 323 330 334 336 337 337 336 336 338 340 339 339 339 341 343 346 348 349 349 350 351 352 353 353 353 353 353 353 353 353 353 352 352 351 350 350 350 350 351 351 351 352 353 353 353 353 353 353 352 352 353 354 354 354 353 351
319 319 318 317 318 318 318 318 318 320 322 322 323 322 321 320 318 317 316 315 314 314 315 315 315 316 317 318 318 319 322 326 329 330 331 333 334 337 339 340 340 339 338 339 340 342 345 347 348 350 351 352 353 353 353 353 353 353 353 353 353 353 352 352 352 351 351 351 351 352 352 353 353 353 354 353 352 352 351 352 352 353 353 353 352
318 318 317 316 316 316 315 314 314 315 316 317 318 318 318 317 316 315 314 313 313 313 315 315 315 314 315 317 318 318 316 317 318 319 322 327 331 335 337 339 340 339 338 338 337 336 337 338 340 341 343 345 348 350 350 351 352 353 353 353 353 353 353 353 353 352 352 352 352 352 352 353 353 353 353 353 352 351 351 352 352 353 353 353 353
318 318 317 317 316 316 315 312 311 311 310 310 310 311 311 311 311 312 311 311 312 313 313 314 315 315 314 314 315 316 316 315 313 314 317 322 328 332 335 337 338 338 339 339 339 337 335 333 332 331 331 332 336 339 340 342 346 350 352 353 353 353 353 353 353 353 353 352 352 353 353 353 353 353 353 352 352 351 351 352 353 353 354 354 354
318 318 317 317 316 315 313 311 309 308 308 308 308 308 308 308 308 309 309 309 311 312 312 313 314 314 315 314 313 314 314 314 313 313 315 320 326 330 332 333 334 335 336 337 337 337 336 334 330 327 325 324 326 328 330 333 337 341 346 349 351 352 353 353 353 353 353 353 353 353 353 354 354 354 354 353 352 352 351 351 352 354 355 355 355
317 317 317 315 314 312 310 309 309 308 308 309 308 309 309 308 308 308 308 307 308 308 309 310 310 311 312 313 314 315 315 314 313 312 313 318 323 327 329 329 330 331 331 331 330 330 330 328 326 323 321 321 322 323 324 326 328 332 336 340 343 346 348 350 351 352 352 353 353 353 353 354 354 354 354 354 353 353 353 352 351 352 353 354 354
317 316 315 314 312 310 308 308 308 309 309 308 309 309 309 309 310 310 309 309 308 307 307 307 308 308 309 310 313 315 315 316 315 315 315 316 320 324 327 328 328 328 326 324 322 321 320 320 319 318 318 319 319 321 322 323 324 325 327 330 332 335 338 340 343 346 348 349 351 352 353 353 354 353 353 353 353 353 354 354 353 353 353 353 353
316 316 315 314 312 310 308 307 307 308 308 308 308 309 309 309 310 310 310 310 310 310 309 308 307 307 308 309 311 314 316 316 316 317 318 317 318 321 323 324 324 323 320 318 318 317 316 315 315 315 315 315 317 318 319 320 322 323 324 325 326 327 328 330 333 336 339 341 344 347 349 351 352 352 352 352 352 352 353 353 354 354 354 354 354
316 315 314 313 312 310 308 306 306 306 306 306 307 308 307 308 308 309 310 310 310 311 311 310 310 308 308 309 311 315 318 319 319 319 318 318 319 319 318 318 318 317 315 314 314 314 315 316 316 316 314 314 315 316 317 318 319 321 322 323 324 325 326 327 328 329 330 332 334 337 339 342 344 345 347 349 350 351 352 353 354 355 355 355 355
315 315 314 313 312 310 308 306 306 305 306 306 307 308 307 307 307 308 309 309 309 310 311 311 311 311 310 309 311 315 320 322 322 321 320 320 322 321 320 318 318 316 315 314 314 315 317 317 317 317 315 315 314 314 315 317 318 320 322 323 324 325 326 326 326 326 326 327 328 329 331 333 336 338 340 341 343 345 346 348 349 350 351 353 354
315 314 314 313 312 311 310 308 306 306 307 309 309 308 308 308 308 309 310 310 310 310 311 311 312 312 312 311 310 313 318 321 322 322 322 322 323 323 322 320 319 317 316 316 317 317 318 318 317 317 316 315 315 316 318 319 321 323 325 327 327 327 327 327 327 327 327 328 328 329 330 331 332 334 336 338 340 341 342 342 342 343 344 346 348
315 314 314 313 313 312 311 309 307 307 309 310 310 309 309 309 311 313 313 313 313 312 311 312 312 313 314 313 312 313 317 320 322 322 322 322 323 323 322 321 319 318 318 319 319 319 318 318 317 316 315 315 316 319 321 323 324 324 325 327 328 328 328 329 328 328 329 330 331 331 331 331 332 332 334 336 339 341 343 344 343 342 342 343 344
Wind_Speed
33 33 33 30 27 23 21 19 17 18 16 17 18 20 20 19 19 18 17 16 17 16 14 14 13 11 11 13 12 12 11 11 11 11 10 9 9 9 9 9 7 7 8 8 7 7 6 6 7 8 8 8 8 8 8 8 8 8 8 8 7 6 4 4 4 4 3 3 3 3 3 3 3 3 1 1 2 3 2 3 3 4 5 5 5
32 33 34 32 29 26 24 21 20 18 17 17 18 19 20 19 19 18 17 18 18 16 14 14 12 10 11 12 12 11 11 11 11 10 10 9 9 8 8 8 7 7 6 6 6 6 7 7 7 8 8 8 8 7 7 8 8 8 8 7 7 6 5 4 4 4 3 4 3 4 3 2 1 1 1 1 2 3 3 3 3 4 5 5 5
32 34 35 34 31 29 27 24 21 17 16 17 18 19 19 19 20 19 18 18 17 16 14 13 11 9 10 10 11 11 10 10 10 10 10 9 9 9 8 8 8 8 7 6 6 7 7 7 8 8 8 7 7 7 7 7 7 8 7 7 7 6 5 4 4 4 4 4 3 4 4 4 4 3 3 3 2 0 1 2 3 4 4 5 5
34 35 35 35 33 32 30 27 22 19 18 18 19 20 19 19 20 19 18 17 16 15 14 12 11 11 11 10 11 11 10 10 10 10 9 9 9 9 9 8 8 8 7 7 7 8 7 8 8 8 8 8 7 7 7 7 7 7 7 6 6 5 4 3 2 3 3 2 3 5 5 6 7 7 6 5 5 4 3 2 2 3 4 5 6
36 37 37 36 36 35 31 28 24 22 21 18 18 19 19 18 19 19 19 16 15 15 14 14 14 14 14 13 13 13 12 11 11 11 10 9 8 8 9 8 8 8 7 7 8 8 8 8 9 9 9 8 7 7 8 8 8 7 7 6 5 5 4 3 2 2 2 1 3 5 6 6 8 9 7 5 5 6 5 5 3 2 3 5 5
38 38 38 38 37 36 33 31 27 23 22 18 15 16 16 17 17 18 19 17 15 15 15 15 16 16 16 15 15 15 14 13 11 10 8 8 7 7 8 7 8 8 8 9 9 8 8 8 9 10 10 9 7 8 9 9 9 8 8 6 5 5 5 3 2 2 2 1 2 4 5 6 8 10 9 7 7 6 5 5 4 3 3 4 5
37 39 39 39 38 37 36 33 29 25 23 18 15 14 15 16 16 17 19 18 16 16 16 16 16 17 16 14 13 12 12 11 10 8 6 6 7 7 8 8 8 8 8 9 9 9 9 9 10 10 10 9 9 9 9 9 10 10 9 8 6 5 5 4 2 3 3 1 1 4 4 5 8 9 10 10 8 6 5 4 4 4 4 3 4
37 38 40 40 39 38 37 35 30 25 23 20 17 15 14 15 16 16 17 18 18 17 17 16 16 17 15 13 11 10 9 8 8 8 6 6 7 7 8 8 8 8 8 8 9 9 10 10 10 11 11 10 9 9 9 10 10 10 10 9 7 6 5 4 2 3 4 2 1 3 3 5 7 7 8 9 8 6 6 5 5 4 3 2 2
37 39 40 40 40 39 37 34 31 27 24 22 18 15 14 15 16 17 16 17 19 19 19 19 17 17 15 13 11 8 7 6 7 7 6 7 7 8 9 9 9 9 9 8 9 9 10 11 11 11 12 11 10 10 10 11 10 11 11 10 8 7 5 3 2 3 4 3 2 2 2 3 4 3 5 6 5 6 7 8 8 6 3 1 1
37 38 40 40 39 38 36 33 31 29 25 22 19 16 15 15 16 18 17 16 19 20 21 20 19 19 17 15 12 9 8 8 8 8 7 8 8 9 10 10 9 9 10 9 9 10 10 11 11 11 11 11 11 11 11 11 11 11 11 10 9 8 6 4 3 4 4 4 3 3 2 2 1 1 4 5 4 5 6 7 10 9 6 4 4
33 36 39 39 39 37 36 34 32 30 27 25 22 18 16 16 17 18 18 17 19 21 21 20 20 20 19 16 13 11 10 10 10 10 10 9 9 9 9 10 9 9 10 10 10 10 10 11 11 11 12 12 12 12 11 11 11 11 11 11 10 10 9 7 5 5 5 4 4 4 3 2 3 4 6 6 5 5 6 6 8 9 7 5 6
26 34 38 39 40 38 37 36 34 32 30 27 24 20 18 17 17 18 19 18 20 22 21 21 21 21 19 17 14 13 12 12 12 12 11 11 10 10 10 10 10 10 11 10 10 10 11 11 11 11 12 13 12 12 11 11 11 11 11 10 11 11 11 10 8 7 7 6 6 6 5 4 3 5 7 7 5 5 6 5 7 9 7 5 6
22 31 37 39 40 40 39 38 36 34 32 29 26 22 20 19 18 19 20 20 22 23 22 22 23 22 19 17 16 15 15 14 14 13 12 11 11 10 11 10 11 12 11 11 10 10 11 11 11 11 12 12 12 12 12 11 11 11 11 10 11 11 11 11 10 9 8 7 7 7 7 6 3 4 6 7 6 5 5 5 6 8 7 6 7
21 29 35 38 40 41 40 39 37 35 32 30 27 24 22 20 19 20 21 21 22 23 24 24 24 23 20 18 18 18 17 16 15 14 12 12 12 11 11 10 11 11 11 10 10 10 10 11 11 11 11 11 12 13 12 11 11 11 11 11 10 10 10 11 10 10 10 9 8 8 8 7 4 1 4 6 5 5 5 5 6 7 6 6 7
18 25 31 36 40 41 41 40 38 36 33 31 28 26 23 20 20 21 22 22 22 23 23 24 24 23 22 20 19 19 18 17 15 14 13 12 12 12 11 10 10 10 10 9 10 10 9 10 11 11 11 11 12 12 12 11 11 11 11 10 10 10 10 10 10 10 10 10 9 9 9 8 5 1 2 3 4 3 3 4 6 7 8 8 7
15 21 27 33 37 39 40 40 39 36 34 32 29 27 24 21 19 21 22 22 22 22 22 23 24 24 23 22 21 20 19 18 17 16 15 13 12 12 12 11 10 10 10 11 11 10 9 10 10 10 10 11 11 11 11 11 10 10 10 10 10 9 9 10 9 10 10 10 10 11 10 9 7 5 3 2 2 3 3 4 6 8 10 11 10
16 19 26 31 34 37 39 40 39 38 36 33 30 27 24 20 18 19 21 21 21 21 21 22 22 23 23 23 22 21 20 20 18 17 16 14 13 13 12 11 11 11 11 12 12 11 11 11 10 10 10 10 10 10 10 11 11 10 10 10 9 9 9 9 9 10 10 10 11 12 11 10 8 8 7 6 4 4 5 6 7 8 10 11 12
17 18 22 27 32 36 38 40 39 38 36 33 29 26 24 21 18 18 19 20 20 21 21 21 21 22 23 23 23 23 21 20 19 17 17 16 15 14 13 13 12 12 11 12 13 12 12 12 11 11 11 10 10 10 10 10 10 9 10 9 8 9 9 8 8 9 9 10 10 11 12 12 11 11 11 10 9 7 8 8 9 10 10 11 12
23 21 20 22 27 33 36 38 39 38 37 34 31 28 26 24 21 19 18 19 19 20 20 21 21 22 23 23 23 23 22 21 20 19 17 17 17 16 15 14 13 12 12 12 13 13 13 13 13 13 12 11 10 10 10 10 9 9 9 9 8 9 9 8 8 8 8 9 10 10 12 13 13 13 13 13 12 11 11 11 11 11 11 12 12
27 27 23 21 24 30 32 34 36 37 37 36 34 31 29 27 25 22 21 20 20 20 20 21 21 22 24 24 23 23 23 22 21 20 18 17 16 16 16 15 14 14 13 13 14 14 13 14 14 14 13 12 11 11 11 10 9 9 8 8 8 9 9 8 8 7 7 8 9 9 10 11 12 13 13 13 14 13 13 13 13 12 11 11 10
24 27 27 24 24 27 28 28 32 35 36 36 35 33 31 30 28 25 23 22 22 21 21 21 22 23 24 25 25 24 23 23 22 21 20 18 17 16 16 16 16 15 15 14 15 14 14 14 14 14 13 13 12 12 12 11 10 9 9 9 9 9 9 8 7 8 8 8 9 9 9 9 10 11 12 13 14 13 13 14 13 13 12 11 9
20 23 26 28 27 26 25 25 27 29 30 30 31 31 32 31 30 28 26 24 22 21 20 19 21 23 24 24 24 24 24 24 24 23 22 20 18 17 17 17 17 17 17 16 15 14 14 14 14 13 13 12 12 12 13 12 11 10 10 10 10 9 9 8 8 8 8 9 9 9 9 9 9 11 12 12 12 12 13 13 14 14 13 12 10
17 18 20 24 26 25 23 24 26 27 27 26 25 27 29 31 31 30 29 27 26 25 22 21 22 23 24 24 24 24 25 25 25 24 23 22 21 19 18 18 18 18 18 18 18 16 15 15 15 15 15 14 13 13 13 13 13 12 11 11 11 11 10 10 10 9 8 9 10 10 10 9 9 11 11 10 10 10 11 12 14 15 15 13 12
17 16 15 16 19 21 22 25 27 27 27 25 22 21 23 25 28 29 30 30 30 29 27 25 24 23 24 24 24 24 24 25 25 25 25 24 23 22 21 20 19 19 19 19 19 18 18 17 18 17 17 16 15 14 14 14 14 13 13 12 12 12 12 11 11 10 9 10 10 11 11 10 10 11 10 10 10 10 11 12 12 14 15 15 14
19 18 17 17 18 19 20 24 27 28 29 26 21 18 18 20 21 25 29 30 30 31 30 28 26 23 23 24 24 24 24 25 26 26 26 25 24 24 23 23 22 21 20 19 19 19 19 19 19 19 18 17 16 15 14 14 14 14 14 14 14 14 13 13 12 11 11 11 12 12 11 11 12 12 11 11 10 11 11 12 13 13 14 16 17
20 20 19 18 19 18 18 20 23 25 26 25 20 17 18 19 20 22 25 28 29 30 31 29 27 25 24 23 23 24 25 26 26 26 26 25 25 25 24 24 24 23 21 19 18 19 19 19 19 19 18 18 17 16 16 15 15 15 15 15 16 16 15 14 14 13 13 13 13 13 13 13 14 14 13 12 12 12 12 13 14 13 13 13 14
20 19 19 19 21 21 19 17 18 19 20 21 19 16 16 19 22 23 24 25 27 29 31 30 28 28 27 25 24 24 26 26 26 26 25 25 24 24 24 24 24 24 23 21 20 19 19 19 19 19 19 18 17 16 16 16 16 16 17 17 16 16 16 16 15 15 15 14 14 14 14 14 14 14 13 12 12 12 12 13 12 10 8 9 9
21 20 20 20 23 26 25 20 17 17 17 17 17 15 15 17 20 22 24 26 26 27 29 29 29 30 30 28 27 25 25 25 24 25 25 25 24 23 23 23 24 24 24 23 22 21 20 20 20 20 19 19 18 17 16 16 16 16 16 17 17 17 16 16 16 16 16 16 15 15 15 15 14 14 13 13 13 13 13 12 11 9 8 8 10
23 21 21 21 22 25 28 24 18 17 16 14 13 13 13 14 16 18 20 22 23 24 26 26 28 31 32 31 29 27 25 24 24 25 25 25 25 24 23 23 25 26 27 26 24 22 21 21 20 19 20 20 20 19 18 16 16 16 16 16 16 16 17 16 16 16 17 17 17 17 17 16 16 16 15 15 14 13 13 13 12 11 11 12 13
24 23 22 22 22 23 25 23 19 16 14 12 11 10 9 10 11 12 14 17 19 20 21 23 26 29 31 31 31 29 26 25 25 26 26 26 26 25 25 25 26 28 28 27 26 25 24 23 22 21 21 22 22 21 19 18 17 16 16 16 16 16 16 15 16 16 16 17 18 19 19 19 19 18 17 16 16 15 15 15 15 14 14 15 15
24 24 23 22 22 22 22 21 19 16 13 11 10 8 6 6 7 9 11 13 14 15 16 18 20 21 22 23 25 25 24 23 23 25 26 27 27 26 26 27 28 29 29 28 27 25 25 24 23 23 22 23 23 22 20 19 18 18 18 18 18 17 17 17 17 16 16 15 16 17 18 19 21 21 20 19 18 18 18 18 18 17 17 17 17
23 23 23 22 22 21 20 20 18 16 13 12 11 10 8 6 4 5 8 10 10 12 16 17 17 16 15 15 16 17 17 18 19 21 23 25 27 28 28 29 30 30 29 28 27 25 25 24 24 24 24 24 24 23 22 21 21 20 20 21 21 21 21 22 21 20 19 18 17 17 17 18 18 19 20 21 21 21 20 20 20 20 20 20 20
23 22 22 22 22 21 20 19 18 16 14 12 10 9 9 8 6 5 6 6 6 7 11 14 14 13 11 10 11 12 13 15 16 17 19 20 23 28 30 32 34 33 30 29 28 26 25 25 25 26 25 25 24 23 23 24 24 23 23 23 24 24 25 25 25 24 23 22 21 20 19 18 17 17 18 19 19 19 19 20 21 21 22 22 22
22 22 21 21 22 22 21 20 18 16 14 13 11 11 11 9 8 7 6 5 4 3 3 5 6 8 9 9 9 8 9 11 13 15 16 17 20 24 28 31 33 33 31 29 29 28 28 27 26 25 25 25 24 23 23 24 26 26 26 26 26 25 26 26 26 26 25 24 22 21 20 19 17 17 17 17 18 18 18 19 20 21 22 21 22
23 22 20 19 20 21 20 19 18 16 14 13 12 13 13 13 11 10 9 8 6 4 3 3 1 1 4 6 6 6 7 9 10 12 14 17 20 23 26 29 29 29 29 28 28 28 29 29 28 26 25 24 23 23 23 24 26 27 27 28 28 28 27 27 27 27 27 25 24 23 22 21 19 18 17 16 17 18 19 20 21 22 22 22 22
23 22 20 18 17 17 18 17 16 14 13 12 11 11 12 14 14 13 12 10 8 8 8 8 7 5 1 2 3 3 5 7 8 9 10 13 16 19 20 22 24 25 26 25 25 25 26 27 28 27 27 26 24 24 24 25 26 27 27 28 29 29 29 29 29 28 28 27 26 25 24 23 22 21 19 19 19 20 22 24 24 25 25 26 26
23 21 19 17 15 15 15 14 13 12 11 10 9 8 9 10 11 12 12 11 10 9 9 8 8 7 4 2 2 2 2 3 4 6 6 7 11 14 14 15 17 20 21 21 20 19 20 21 23 25 26 26 26 26 26 27 28 28 28 29 29 29 29 30 31 30 30 29 28 28 27 27 27 26 25 24 24 24 27 28 28 29 29 29 29
23 21 18 16 14 13 13 11 11 10 9 7 6 6 6 6 7 7 8 8 9 9 8 7 6 6 5 4 3 2 1 1 1 1 2 3 5 8 11 13 14 16 17 17 17 15 15 16 18 20 22 24 25 26 27 28 29 29 30 30 29 29 30 30 30 30 29 29 29 29 30 30 30 29 28 28 27 28 30 31 31 32 33 33 33
21 19 18 16 14 13 12 11 9 9 8 5 3 3 3 3 3 3 3 3 4 6 6 7 6 5 6 5 3 2 1 2 2 2 1 1 0 2 5 7 8 9 11 13 14 13 14 14 15 15 16 17 20 24 26 27 28 29 30 30 30 31 31 31 30 30 29 29 29 29 29 30 30 30 30 30 30 30 31 32 32 32 34 36 34
18 16 15 14 12 11 10 9 8 8 7 5 2 0 2 4 4 5 6 6 4 3 3 3 4 3 4 5 4 2 1 1 1 1 0 0 0 1 1 2 2 3 3 5 8 9 10 11 12 12 12 13 15 19 21 23 24 25 27 28 28 29 30 30 30 30 30 30 30 31 31 30 30 31 31 32 32 31 32 32 32 32 34 34 33
17 14 12 11 10 8 7 6 6 6 6 5 4 3 4 4 5 6 7 8 7 6 4 2 1 1 2 3 3 2 0 2 2 2 2 2 2 1 1 3 4 4 4 3 2 4 5 7 8 10 12 13 14 15 16 18 20 21 22 23 24 24 26 28 29 29 29 30 31 31 31 31 31 32 33 33 33 32 32 32 32 33 32 32 31
16 14 11 9 8 5 4 3 3 4 4 5 6 6 7 7 7 8 8 8 8 8 7 6 5 5 5 5 4 3 1 3 4 4 3 3 3 2 2 2 3 4 4 4 3 3 3 3 4 6 8 11 13 15 15 15 17 18 19 20 21 22 23 25 27 28 28 29 30 29 29 30 31 32 32 32 32 32 31 31 31 31 30 30 30
15 12 9 7 5 3 2 2 3 4 5 6 6 6 7 7 7 8 8 8 8 9 9 9 9 9 8 8 8 7 5 5 6 6 5 3 3 3 3 3 4 5 5 5 4 4 3 3 3 4 6 7 9 11 13 13 14 16 16 17 19 20 21 22 24 25 26 27 28 28 28 28 29 30 31 31 31 32 32 31 30 29 29 29 30
13 10 8 5 4 3 3 4 6 6 7 6 6 6 6 7 7 8 9 9 10 10 11 11 11 11 11 12 12 11 9 8 8 7 7 5 5 4 4 5 6 7 7 8 8 7 6 5 5 5 6 7 7 7 8 10 12 13 15 17 18 19 20 21 21 21 22 24 27 28 27 27 28 29 29 29 29 30 30 31 30 29 29 30 30
12 10 8 5 3 3 3 4 5 6 7 7 6 7 7 7 8 9 9 10 11 11 11 12 12 13 13 13 14 13 13 11 10 9 9 8 7 6 6 7 8 8 9 9 10 10 10 10 9 9 8 8 7 7 7 8 9 11 13 15 18 19 20 21 21 20 21 22 23 25 26 26 27 28 29 29 29 29 29 30 31 31 31 32 32
12 10 7 5 3 3 4 5 6 6 6 6 7 8 8 8 9 9 10 10 11 11 11 11 12 13 13 14 14 14 14 13 11 10 9 9 9 9 9 10 10 10 11 11 11 11 11 11 11 11 10 9 8 8 9 9 9 10 11 13 14 15 16 18 19 20 21 22 23 24 25 26 27 28 29 30 30 30 30 30 30 31 32 33 34
10 8 6 4 4 5 6 7 7 7 7 8 9 9 10 10 10 11 11 11 11 11 11 11 11 12 13 14 14 14 15 14 13 12 10 9 9 10 11 12 12 12 13 13 13 13 13 13 12 12 11 10 10 11 12 12 11 11 11 12 13 13 14 15 16 17 19 21 22 23 25 26 28 29 29 30 31 31 31 30 30 30 31 32 33
9 7 5 4 6 8 9 9 9 9 10 11 11 11 12 13 13 13 13 13 12 12 12 11 11 11 12 13 13 13 13 14 14 14 12 11 11 12 12 12 12 13 13 13 14 14 15 15 15 15 14 12 12 12 14 14 14 14 14 14 14 15 15 15 16 17 18 19 19 21 22 23 25 26 27 29 31 32 33 32 31 30 29 29 29
8 6 7 8 9 9 10 10 11 11 12 12 12 12 13 13 13 14 14 13 13 13 12 12 12 12 12 12 12 13 13 13 13 13 12 10 11 13 13 12 12 12 13 13 13 13 14 15 15 16 17 17 15 15 15 15 15 16 16 16 16 17 18 18 18 19 20 20 20 21 21 21 22 23 23 25 27 29 30 32 32 31 30 29 29
9 9 10 10 10 10 10 10 11 12 12 12 12 12 13 13 12 12 13 13 13 13 13 13 14 13 13 12 11 12 12 12 12 12 11 10 10 12 13 12 12 11 11 11 11 11 12 13 14 15 16 17 18 17 17 17 17 17 17 17 17 17 18 19 19 20 20 20 21 21 21 21 21 22 22 22 23 23 25 27 28 29 29 29 29
9 9 10 11 13 13 11 10 11 12 12 12 13 13 13 12 11 10 11 11 12 13 13 14 14 13 12 11 10 11 12 12 11 12 12 11 11 12 12 12 12 11 9 8 7 8 10 12 14 15 15 15 16 16 16 16 16 17 17 16 16 17 17 18 19 19 19 19 19 20 20 20 21 21 21 20 21 21 22 23 24 26 27 27 28
Wind_Direction
193 194 197 198 195 195 192 184 183 185 188 192 194 191 187 185 183 182 182 179 173 167 165 168 172 171 168 170 171 170 170 169 171 173 176 179 177 177 177 178 181 185 184 178 173 175 176 176 177 176 172 173 175 175 178 183 186 188 190 191 189 190 203 232 258 287 309 301 296 322 333 316 278 268 251 156 138 131 128 122 105 90 89 83 71
190 191 194 196 195 196 194 188 187 191 193 196 199 196 192 192 190 188 186 183 178 173 168 168 172 171 168 169 170 172 172 168 169 167 169 175 173 172 177 181 186 187 185 180 180 186 188 186 183 179 175 176 177 179 183 183 185 190 195 200 199 202 213 227 250 274 303 308 326 353 360 342 300 288 273 162 135 130 127 119 106 95 91 83 71
186 187 190 194 196 196 194 191 192 196 198 200 203 200 195 195 195 194 193 188 181 177 173 169 168 165 166 170 169 169 168 163 163 163 165 168 165 169 178 184 190 191 188 188 194 196 196 191 185 181 181 181 179 181 185 185 188 191 193 202 203 206 216 230 247 262 280 293 328 359 360 345 344 349 333 309 296 289 96 89 96 95 81 65 61
184 186 188 191 195 196 195 193 194 198 201 202 203 201 198 196 196 198 198 193 184 179 177 173 169 165 164 169 168 165 163 163 164 165 164 162 160 168 177 181 187 190 191 193 199 200 198 194 189 187 186 183 181 182 186 188 187 189 192 197 198 200 210 217 222 251 268 276 343 356 350 348 355 354 341 320 304 305 329 9 45 69 60 47 57
183 184 187 189 192 195 196 194 194 198 201 202 204 203 200 197 197 200 201 198 189 184 182 181 181 174 167 170 172 170 170 173 173 170 166 161 160 166 173 177 182 188 192 193 200 201 198 197 194 191 189 187 188 185 185 186 182 186 193 189 187 190 197 200 192 210 239 251 357 0 350 349 355 352 346 337 325 321 324 336 349 10 24 35 58
184 185 187 188 191 194 195 195 195 200 202 203 207 208 205 202 201 204 206 202 195 191 190 191 190 183 175 175 178 179 180 179 174 169 165 160 160 166 173 177 179 183 188 192 198 199 199 201 197 193 192 191 194 191 189 189 187 188 190 186 185 189 193 200 203 202 213 225 1 1 347 344 353 358 357 346 339 337 341 351 356 358 5 37 66
184 186 187 188 191 193 194 195 197 202 203 202 207 212 212 210 207 206 208 207 203 199 199 198 193 188 184 182 185 187 184 178 167 159 157 163 168 174 180 181 179 180 184 190 195 196 199 202 197 193 193 195 197 197 195 190 188 189 190 191 195 195 196 196 193 203 217 229 348 356 354 349 349 359 5 358 351 348 349 1 8 11 22 47 72
183 185 187 190 191 194 195 196 199 202 201 200 204 212 216 214 210 205 204 208 208 206 208 207 198 192 188 186 191 191 183 178 169 157 157 177 181 183 188 185 181 182 184 188 192 196 200 199 196 195 196 200 202 199 196 190 189 191 193 198 205 204 200 200 206 217 220 229 302 343 350 342 339 353 8 6 3 357 351 354 351 353 16 37 57
186 187 189 191 193 196 197 197 200 201 200 201 204 211 216 216 212 205 203 207 208 205 206 208 204 199 197 195 197 195 191 193 187 173 171 186 189 190 194 190 185 185 185 187 191 196 202 201 199 198 200 205 205 199 194 193 196 201 201 205 212 209 206 218 245 225 220 229 253 304 317 315 332 7 13 10 16 9 3 0 345 326 313 339 330
188 190 192 194 196 198 199 199 200 201 201 202 205 209 213 216 216 210 208 209 207 203 203 204 201 199 202 206 207 208 209 208 202 194 188 192 196 195 196 192 188 189 188 187 190 194 200 203 202 201 202 203 204 200 197 199 206 211 212 215 218 216 214 228 238 221 221 232 246 273 291 288 314 7 356 0 10 1 359 1 350 329 304 309 314
189 192 193 196 198 199 199 200 200 200 201 202 205 209 211 216 220 216 212 211 209 206 204 204 202 200 202 207 212 214 215 213 207 199 195 198 197 196 197 195 193 194 192 189 191 194 196 198 198 199 201 202 203 203 202 205 210 214 219 225 228 227 224 228 230 222 225 235 246 259 266 287 337 349 346 350 353 348 348 353 352 335 309 305 311
190 192 192 194 195 196 198 200 200 200 201 203 205 208 212 216 220 219 216 214 211 209 207 206 206 205 205 208 213 217 220 218 210 201 198 199 198 197 199 198 199 200 197 191 190 194 194 193 194 196 199 202 205 207 207 209 214 218 223 228 232 232 229 229 229 226 230 242 247 246 249 266 320 346 347 347 341 339 344 344 348 341 318 295 298
188 190 191 192 193 195 197 199 200 200 202 204 206 207 211 216 218 219 218 214 211 210 208 207 209 210 209 210 214 219 223 222 215 207 201 199 199 203 203 200 200 203 202 194 191 194 197 197 198 199 201 204 207 212 214 215 220 225 226 227 228 230 231 232 232 230 233 241 241 233 237 251 280 347 356 354 342 333 343 344 339 340 327 297 293
189 191 192 193 195 197 199 199 200 202 204 205 206 207 210 215 218 218 217 215 211 210 208 209 212 213 212 213 217 220 222 221 218 214 209 204 202 208 211 204 202 208 208 199 194 196 200 203 204 204 205 207 211 215 219 221 225 228 227 226 227 229 231 231 231 231 232 239 240 230 230 238 240 354 11 4 352 341 349 352 338 334 331 317 310
187 191 194 195 197 197 199 201 202 204 205 205 207 208 210 214 217 216 215 214 212 210 210 210 211 214 214 215 218 221 221 220 221 220 218 214 207 210 215 209 206 210 209 206 204 200 200 205 208 209 209 209 212 216 219 224 230 232 231 230 230 229 229 231 232 229 230 237 241 235 230 231 228 234 357 4 5 354 353 353 340 334 331 327 322
178 189 196 198 198 197 197 201 204 205 205 206 207 208 210 213 216 213 211 213 213 211 211 211 211 214 216 215 217 221 222 221 222 222 223 222 214 212 213 211 209 207 206 209 210 205 203 206 209 213 212 212 216 219 222 230 235 236 237 234 232 231 230 232 233 232 232 236 239 236 231 229 235 248 267 292 334 334 325 322 325 329 329 326 321
174 188 199 200 199 199 199 200 203 205 206 207 209 210 210 212 214 210 208 211 214 213 213 213 212 212 214 215 216 219 222 224 224 223 225 227 222 214 213 212 210 208 207 212 216 212 208 209 210 214 216 219 225 227 227 232 236 238 237 231 227 230 232 232 233 236 236 237 238 237 234 233 241 254 261 266 274 289 297 300 307 314 319 321 319
180 182 195 199 199 200 202 203 205 206 208 209 211 213 212 212 213 207 204 207 212 214 214 214 212 211 212 213 214 218 222 226 228 226 227 230 229 222 217 215 214 212 210 215 221 220 216 214 212 216 221 223 226 231 233 235 239 240 238 233 232 234 234 234 237 239 239 240 240 237 236 239 248 257 260 265 269 274 282 288 296 302 307 310 311
194 189 186 188 197 201 202 205 206 207 210 212 213 215 214 214 215 211 207 207 210 213 214 215 214 211 211 213 215 218 221 225 229 230 230 232 233 230 225 221 219 219 216 217 223 225 225 221 216 217 221 222 223 228 235 240 242 242 241 240 243 244 241 241 244 243 242 245 243 238 237 243 252 257 257 261 267 270 275 279 285 291 296 300 304
193 195 187 176 187 199 202 203 206 208 210 213 214 215 215 215 216 216 216 216 215 216 217 217 216 213 212 214 217 219 220 223 227 230 232 234 236 237 235 232 228 226 223 221 223 228 229 227 224 223 223 223 223 226 233 240 242 242 242 242 244 248 249 251 252 249 247 248 248 244 242 246 254 256 255 258 264 270 272 273 276 281 287 293 303
185 193 192 183 181 189 193 196 203 208 210 213 214 215 217 219 218 218 220 221 221 221 222 221 219 216 215 215 218 220 221 223 226 228 232 234 237 240 241 241 238 234 232 229 229 230 231 232 232 230 230 228 226 228 233 238 241 241 241 243 243 246 251 255 254 250 248 250 252 252 251 255 260 261 259 259 262 268 270 269 269 272 277 283 290
179 188 193 194 190 185 184 187 196 203 206 209 212 213 216 219 221 221 222 224 225 225 226 225 222 219 218 218 220 222 222 223 225 227 230 232 235 238 240 242 241 238 238 238 237 237 236 238 238 237 238 235 231 232 235 239 243 243 240 241 244 249 254 257 256 255 256 257 259 260 260 262 267 271 272 268 267 269 271 268 263 264 269 272 275
165 177 185 192 195 192 190 189 190 195 199 201 205 210 214 218 222 224 225 227 228 228 228 229 228 225 223 221 221 223 224 225 226 227 230 231 233 235 237 239 240 239 240 241 241 242 241 243 244 244 243 239 235 234 236 241 246 247 245 243 243 248 253 256 259 261 263 266 268 269 268 267 269 273 277 276 274 273 274 272 266 263 266 267 268
144 158 168 176 183 187 191 193 193 195 197 197 200 206 208 211 218 222 225 227 229 230 230 231 232 230 228 226 224 224 226 227 229 230 231 233 234 236 237 238 239 239 239 241 243 244 245 246 247 247 245 242 238 237 238 241 244 248 250 248 246 247 250 253 257 259 261 264 267 268 268 268 269 272 273 274 274 271 272 275 271 267 266 266 268
142 149 155 160 165 173 186 194 197 200 200 199 201 205 201 202 210 216 221 225 227 231 232 232 234 234 232 230 228 228 229 230 232 232 233 234 235 237 238 239 240 241 240 241 243 246 248 247 246 247 247 246 245 245 245 244 245 248 252 252 249 248 249 252 255 256 257 258 261 264 266 266 267 270 273 275 276 274 273 275 275 272 269 268 268
142 147 152 155 157 165 180 193 200 205 208 206 206 207 202 200 204 209 216 221 225 230 232 233 235 237 237 234 230 229 230 233 234 234 235 236 236 237 238 239 240 240 240 241 243 246 248 247 247 249 251 253 254 254 253 252 251 251 253 255 253 250 250 251 253 256 257 257 259 262 264 264 265 268 273 275 277 280 280 280 280 279 275 271 271
133 136 138 137 134 140 154 172 190 201 208 211 211 207 203 201 203 204 210 218 223 227 230 233 235 237 240 239 233 229 231 233 235 236 237 238 238 238 238 238 239 239 238 239 242 244 246 248 249 251 253 257 260 261 260 258 257 254 253 254 255 253 250 250 252 255 258 261 263 265 265 265 265 267 272 275 277 281 283 282 278 274 273 275 277
125 125 124 120 117 121 127 142 173 190 197 206 209 206 203 203 205 208 212 219 222 224 228 231 233 235 239 240 236 234 235 237 238 238 239 238 239 239 238 238 238 238 238 238 239 242 245 248 250 252 253 255 259 261 262 262 262 261 260 258 257 257 255 255 256 256 258 261 263 266 268 269 270 271 273 275 278 281 282 281 272 258 259 272 280
118 116 115 114 113 116 120 129 153 173 179 185 188 192 200 205 208 211 215 220 222 224 229 231 230 233 237 238 237 236 236 238 239 241 241 240 239 238 239 240 240 238 238 238 239 242 244 248 250 253 255 256 257 259 259 262 265 268 270 271 270 270 270 270 269 267 266 266 265 267 268 270 273 274 274 275 277 279 280 280 275 263 260 268 276
112 111 110 111 111 112 117 126 139 150 157 160 161 171 189 203 208 210 217 224 224 226 232 232 231 235 237 237 235 234 234 237 240 241 242 242 241 238 238 243 245 243 241 240 240 241 242 245 248 251 255 257 259 260 259 260 263 268 273 276 278 279 280 281 281 279 277 274 272 272 271 272 274 274 274 274 275 276 277 278 279 275 271 271 274
111 111 111 112 112 112 113 118 123 127 129 130 128 131 147 180 203 205 207 215 220 223 227 228 227 229 232 232 231 231 233 237 241 243 243 243 243 240 239 243 244 244 246 245 244 244 244 246 248 249 252 255 257 259 260 260 261 263 267 270 273 275 277 278 280 281 282 282 280 279 277 276 275 274 274 274 274 275 275 276 277 277 276 276 275
113 113 111 111 112 112 112 112 112 112 111 109 109 113 120 133 155 165 164 173 189 201 205 206 207 206 209 216 221 224 229 235 240 244 245 243 242 241 242 243 239 236 239 242 243 246 247 249 251 252 254 256 256 257 258 260 261 261 262 264 266 269 272 274 276 278 280 283 285 287 286 284 281 279 278 278 278 278 278 279 279 279 279 278 277
116 115 112 111 109 109 111 111 108 106 104 103 109 114 113 114 109 97 118 150 176 190 191 194 195 192 190 195 206 216 225 231 238 245 247 247 246 244 244 245 241 235 232 234 236 240 243 246 250 252 254 257 258 258 259 260 262 263 263 263 264 266 268 270 273 274 277 280 283 286 287 287 288 288 286 286 284 283 283 283 284 284 283 282 282
118 117 115 113 112 110 110 109 108 106 104 102 106 108 105 102 101 96 102 132 167 193 207 209 201 188 178 175 183 200 218 228 234 241 244 246 246 243 239 239 239 238 236 235 236 238 241 243 246 250 253 255 256 258 259 260 261 262 263 264 265 266 267 268 269 270 271 273 276 279 281 281 282 284 286 289 289 289 289 288 288 288 287 287 287
119 120 120 117 115 113 110 107 106 104 102 101 101 105 106 103 100 98 99 104 114 110 80 47 36 184 192 193 194 201 215 224 228 232 236 238 239 240 239 239 240 240 242 242 240 240 241 243 246 250 253 255 256 258 259 259 260 261 262 264 266 267 268 269 269 268 267 267 268 271 273 274 273 273 274 277 280 283 284 285 285 286 286 287 287
121 122 121 119 116 114 111 109 109 108 106 103 100 103 106 102 97 94 92 94 101 99 89 78 71 71 69 264 272 259 240 236 237 236 233 233 234 236 241 247 247 243 243 245 242 240 240 242 245 248 251 254 255 256 258 259 260 260 261 262 264 266 268 269 270 270 268 267 266 267 268 270 271 270 271 272 274 277 279 280 281 281 282 282 282
128 126 123 120 115 113 113 113 115 115 109 102 99 102 105 101 97 92 88 91 98 97 92 89 89 89 84 45 359 347 287 257 254 252 248 244 243 241 245 254 254 247 243 244 243 241 241 243 245 246 248 250 251 251 252 254 256 257 257 258 260 263 265 267 269 270 269 267 265 265 267 269 270 272 275 277 277 278 279 280 280 281 280 280 280
136 132 128 126 121 118 121 122 119 113 108 100 89 85 91 95 94 92 89 90 93 92 87 83 85 92 95 93 81 66 70 124 176 239 244 250 257 256 256 259 260 254 248 247 248 249 249 250 251 250 250 251 250 249 249 250 251 253 255 256 258 259 261 264 266 267 266 265 264 265 268 271 273 275 278 280 280 280 280 280 281 282 281 280 280
138 136 132 131 128 128 132 132 127 121 118 115 86 45 35 32 26 28 39 52 74 86 86 78 75 84 97 101 94 81 113 151 147 125 131 166 201 270 265 263 265 264 258 256 256 257 257 259 260 260 260 259 256 253 251 251 251 252 254 256 257 258 260 262 263 263 263 262 262 264 266 270 273 276 279 281 283 282 281 281 282 283 282 281 280
140 140 137 134 133 136 139 139 138 136 139 148 159 319 328 330 330 326 325 328 336 4 53 73 82 94 107 106 98 92 147 196 186 157 120 325 77 63 14 349 352 343 302 273 263 260 260 262 264 265 266 264 262 260 257 255 254 253 255 256 258 260 261 262 263 262 262 263 263 265 267 270 273 276 279 281 282 282 280 279 280 280 281 282 283
144 147 145 143 143 148 152 154 157 157 164 183 208 239 269 284 295 302 308 311 312 316 323 319 277 214 192 166 135 116 113 274 275 291 299 290 287 314 2 360 360 9 16 2 319 282 269 268 270 271 270 267 264 261 258 256 254 255 257 258 261 264 265 266 266 265 265 266 267 268 271 274 275 276 278 279 281 281 279 277 276 277 279 281 282
148 150 153 154 152 155 163 173 190 200 215 231 242 253 263 268 276 282 288 292 295 296 295 292 288 276 256 239 219 200 222 274 278 282 276 263 270 291 313 323 324 332 345 357 357 341 316 296 291 292 291 287 277 270 266 262 257 255 257 260 262 266 268 269 270 271 270 270 270 272 273 274 274 274 275 276 277 278 279 277 276 276 277 278 279
153 155 161 163 158 162 202 256 259 253 254 256 257 260 261 261 266 272 275 278 279 280 280 281 284 284 281 274 263 252 254 269 273 272 269 261 260 267 276 287 296 303 310 318 323 324 322 317 311 311 316 315 303 292 289 286 275 265 260 259 260 263 265 268 271 274 275 275 275 274 274 274 275 276 276 276 276 277 278 279 279 278 277 278 279
161 166 173 180 187 205 233 260 269 273 275 275 275 273 266 262 262 264 267 270 269 270 272 273 276 279 281 283 282 277 275 275 274 272 271 266 258 259 269 278 285 292 298 301 304 306 306 307 309 311 315 319 320 315 311 306 297 286 275 269 266 264 262 263 266 270 274 276 277 276 276 276 277 278 278 279 279 278 278 278 279 280 280 279 280
167 170 173 183 207 237 251 254 260 271 281 290 295 292 285 281 276 271 270 269 268 268 269 270 273 274 275 278 282 284 285 284 279 275 275 274 270 269 274 281 287 293 296 296 297 299 301 304 305 307 310 312 311 310 311 309 305 298 291 286 281 277 271 269 269 269 271 273 274 275 275 276 277 279 280 280 280 280 280 278 277 278 278 279 280
174 173 178 193 221 254 260 257 260 270 281 289 291 291 291 289 287 286 285 281 279 277 275 273 273 272 271 272 274 279 285 288 285 279 277 280 281 281 283 286 291 294 298 300 302 301 301 301 300 301 306 309 308 307 306 304 299 296 297 297 297 295 292 290 287 283 280 279 277 275 274 275 277 279 281 281 281 281 280 279 278 277 277 277 278
189 191 199 219 251 262 258 259 267 276 283 284 281 281 284 283 283 287 290 291 294 294 289 284 279 274 271 269 269 273 279 283 284 284 282 284 286 287 289 291 292 292 294 297 301 303 305 306 304 301 301 304 308 308 305 300 294 291 289 292 296 300 301 303 301 296 292 291 287 284 282 281 280 279 280 281 281 281 280 279 279 278 279 279 280
206 216 233 259 272 268 263 265 270 273 276 278 280 282 281 280 281 281 283 288 294 297 299 297 290 283 277 272 268 268 271 276 281 285 288 293 296 296 296 298 300 301 301 300 302 305 310 314 315 311 305 300 301 305 306 303 300 297 294 294 297 298 300 303 303 300 300 303 302 298 296 293 291 288 285 283 282 282 282 281 280 279 279 280 282
224 248 271 281 282 279 279 280 279 276 274 275 280 286 286 285 284 282 282 285 289 293 300 304 302 298 293 282 270 263 265 273 279 282 287 298 305 303 302 305 309 313 313 311 309 311 314 316 318 317 314 309 305 307 309 309 307 305 302 301 300 300 302 305 306 303 303 305 307 308 308 308 307 305 301 296 292 289 287 286 286 285 285 286 286
242 260 274 284 290 294 296 290 280 276 277 280 287 295 296 294 290 287 287 288 290 295 301 306 308 309 307 298 282 265 260 267 275 277 277 283 293 299 301 307 315 322 321 317 315 317 319 319 319 318 317 315 313 312 311 308 306 307 307 307 305 303 303 305 305 305 305 304 305 307 310 312 313 314 314 313 310 306 303 299 296 295 294 292 290
249 263 278 291 298 299 297 288 276 272 277 287 297 303 302 296 288 287 288 290 292 297 302 306 311 312 312 310 299 277 265 265 271 275 276 277 282 289 296 307 317 321 316 310 312 317 319 320 318 315 312 311 310 309 308 307 305 304 305 307 309 308 307 306 304 304 305 305 306 307 308 310 312 313 315 315 314 314 314 312 309 305 303 301 298